[[{"header":{"parameterUnit":"m.s-1","parameterCategory":1,"la1":30.2992,"la2":30.254,"lo1":-89.0895,"lo2":-89.0443,"dy":0.0025,"dx":0.0025,"nx":19,"ny":19,"refTime":"2026-05-06T09:00:00:Z","depth":0,"parameterNumber":2,"parameterNumberName":"U-component_of_WINDS"},"data":[0,0,0,1.2318,1.2319,1.2359,1.236,1.2413,1.2413,0,0,0,0,0,0,0,0,0,0,0,1.2305,1.2305,1.2318,1.2319,1.2359,1.236,1.2413,1.2413,0,0,0,0,0,0,0,0,0,0,0,1.2305,1.2305,1.2305,1.2319,1.2359,1.236,1.2412,1.2382,0,0,0,0,0,0,0,0,0,0,1.2342,1.2329,1.2305,1.2305,1.2319,1.2359,1.236,1.238,1.2384,1.2394,0,1.2402,0,1.2408,1.2417,1.2417,0,0,0,1.232,1.2326,1.2338,1.2305,1.2319,1.2359,1.2341,1.2382,1.2386,1.2399,1.2403,1.2405,1.2409,1.2417,1.2417,1.2472,1.2472,0,0,1.2317,1.2312,1.2335,1.234,1.2332,1.234,1.2343,1.2384,1.2389,1.2403,1.2406,1.241,1.2417,1.2418,1.2472,1.2472,0,0,0,1.231,1.231,1.2321,1.2338,1.2345,1.2341,1.2344,1.2387,1.2391,1.2406,1.2411,1.2418,1.2418,1.2472,1.2472,1.2476,0,0,0,1.2309,1.2306,1.232,1.2317,1.2344,1.2366,1.2346,1.2388,1.2393,1.241,1.2418,1.2419,1.2471,1.2472,1.2475,1.2479,0,0,0,1.2302,1.2305,1.2311,1.2316,1.2334,1.2366,1.2372,1.2389,1.2396,1.2417,1.2419,1.2471,1.2472,1.2475,1.2478,1.2491,0,0,0,1.2294,1.2314,1.2311,1.2335,1.2333,1.2368,1.2372,1.2398,1.2417,1.2418,1.2471,1.2472,1.2475,1.2477,1.2491,1.2501,1.2505,0,0,1.2316,1.2316,1.2331,1.2329,1.2363,1.2362,1.2397,1.242,1.2428,1.2457,1.2459,1.2476,1.2478,1.2491,1.253,1.2533,0,0,0,1.2336,1.2346,1.2357,1.2374,1.2392,1.2408,1.2426,1.2435,1.246,1.2441,1.2485,1.2486,1.2495,1.25,1.2502,1.251,1.2474,1.2474,1.2474,1.2357,1.2367,1.2392,1.2406,1.2423,1.2443,1.2458,1.2474,1.2478,1.2488,1.2496,1.2519,1.2525,1.2527,1.2534,1.2503,1.2503,1.2503,1.2503,1.239,1.2406,1.2412,1.2439,1.2449,1.2472,1.2493,1.2495,1.2519,1.2513,1.2521,1.2512,1.253,1.2537,1.2504,1.2504,1.2504,1.2504,1.2504,1.2404,1.2413,1.2424,1.2451,1.2472,1.2487,1.2509,1.2518,1.2527,1.2534,1.2545,1.2545,1.2545,1.2539,1.2539,1.2539,1.2539,1.2539,1.2539,1.2414,1.2426,1.2443,1.2466,1.2479,1.2497,1.2519,1.2533,1.255,1.2555,1.2555,1.2559,1.253,1.2522,1.254,1.254,1.254,1.254,1.254,1.2441,1.2437,1.2464,1.2477,1.2505,1.2525,1.2537,1.2564,1.2577,1.2589,1.2592,1.2569,1.257,1.2568,1.2561,1.2589,1.2589,1.2589,1.2589,1.2453,1.2455,1.2484,1.2505,1.2527,1.2541,1.2573,1.2591,1.2609,1.2618,1.2616,1.2609,1.2606,1.2609,1.2606,1.26,1.2637,1.2637,1.2637,1.247,1.2475,1.2499,1.2516,1.2539,1.2559,1.259,1.2615,1.2635,1.2639,1.2626,1.2624,1.2612,1.2607,1.261,1.2605,1.2594,0,0]},{"header":{"parameterUnit":"m.s-1","parameterCategory":1,"la1":30.2992,"la2":30.254,"lo1":-89.0895,"lo2":-89.0443,"dy":0.0025,"dx":0.0025,"nx":19,"ny":19,"refTime":"2026-05-06T09:00:00:Z","depth":0,"parameterNumber":3,"parameterNumberName":"V-component_of_WINDS"},"data":[0,0,0,-1.0309,-1.0303,-1.0006,-1.0004,-0.9652,-0.9649,0,0,0,0,0,0,0,0,0,0,0,-1.0419,-1.0417,-1.031,-1.0303,-1.0006,-1.0004,-0.9652,-0.9649,0,0,0,0,0,0,0,0,0,0,0,-1.0419,-1.0418,-1.0416,-1.0302,-1.0006,-1.0004,-0.9653,-0.9866,0,0,0,0,0,0,0,0,0,0,-1.015,-1.0273,-1.0418,-1.0416,-1.03,-1.0007,-1.0004,-0.9876,-0.9853,-0.98,0,-0.9763,0,-0.9701,-0.9627,-0.9626,0,0,0,-1.0285,-1.0293,-1.0194,-1.0415,-1.0298,-1.0007,-1.0135,-0.9863,-0.9837,-0.977,-0.9757,-0.9743,-0.9695,-0.9625,-0.9624,-0.9389,-0.9388,0,0,-1.0302,-1.0375,-1.0212,-1.0178,-1.0231,-1.0145,-1.0126,-0.9846,-0.9836,-0.9756,-0.9734,-0.9689,-0.9623,-0.9621,-0.9389,-0.9388,0,0,0,-1.0361,-1.0388,-1.0295,-1.0193,-1.0138,-1.0136,-1.0115,-0.9848,-0.9812,-0.973,-0.9685,-0.9621,-0.9618,-0.9389,-0.9389,-0.945,0,0,0,-1.037,-1.0422,-1.0303,-1.0345,-1.0144,-0.999,-1.0124,-0.9832,-0.9798,-0.9687,-0.9621,-0.9614,-0.9389,-0.9389,-0.9448,-0.9465,0,0,0,-1.043,-1.0429,-1.0394,-1.035,-1.0225,-0.9993,-0.994,-0.9823,-0.9771,-0.9626,-0.9614,-0.9389,-0.9389,-0.9447,-0.9463,-0.9426,0,0,0,-1.0515,-1.0449,-1.0396,-1.0304,-1.0228,-1.0035,-0.9941,-0.9792,-0.9675,-0.962,-0.9389,-0.9389,-0.9447,-0.9462,-0.9426,-0.9409,-0.9409,0,0,-1.0472,-1.0446,-1.0386,-1.033,-1.0167,-1.0074,-0.9916,-0.9736,-0.9652,-0.948,-0.9473,-0.9449,-0.9463,-0.9426,-0.9384,-0.9385,0,0,0,-1.0397,-1.0355,-1.0295,-1.0191,-1.0055,-0.9939,-0.9777,-0.971,-0.9561,-0.9581,-0.9422,-0.9428,-0.9404,-0.9392,-0.9393,-0.9367,-0.9387,-0.9387,-0.9387,-1.0441,-1.0342,-1.0235,-1.01,-0.9999,-0.9834,-0.9741,-0.9622,-0.9547,-0.9511,-0.946,-0.9447,-0.9437,-0.9437,-0.9411,-0.9442,-0.9442,-0.9443,-0.9443,-1.0369,-1.0294,-1.02,-1.0064,-0.9957,-0.9839,-0.9676,-0.9628,-0.95,-0.9477,-0.945,-0.9434,-0.9441,-0.9413,-0.9446,-0.9446,-0.9445,-0.9445,-0.9445,-1.0388,-1.0334,-1.0258,-1.0097,-0.9983,-0.9845,-0.9729,-0.9634,-0.9544,-0.9517,-0.9452,-0.9451,-0.9438,-0.9493,-0.9493,-0.9493,-0.9493,-0.9493,-0.9493,-1.0437,-1.0349,-1.0265,-1.0118,-1.0039,-0.9922,-0.9755,-0.9672,-0.9556,-0.9496,-0.9495,-0.9424,-0.9461,-0.9473,-0.9492,-0.9492,-0.9492,-0.9492,-0.9492,-1.0402,-1.0396,-1.0267,-1.0188,-1.0007,-0.99,-0.9782,-0.9622,-0.954,-0.9485,-0.9419,-0.9462,-0.9427,-0.9426,-0.9435,-0.9442,-0.9442,-0.9442,-0.9442,-1.0419,-1.0393,-1.024,-1.0121,-0.9992,-0.9873,-0.9726,-0.9596,-0.9458,-0.94,-0.9385,-0.9389,-0.9392,-0.9354,-0.9354,-0.9361,-0.935,-0.935,-0.935,-1.0391,-1.0349,-1.0246,-1.0117,-0.9968,-0.9841,-0.9701,-0.9563,-0.9405,-0.9344,-0.9353,-0.9357,-0.9361,-0.9368,-0.9308,-0.9311,-0.9321,0,0]}]]